Regional Weather Roundup
Issued by NWS Portland, ME

Home | Current Version | Previous Version | Text Only | Print | Product List | Glossary On
Versions: 1 2 3 4 5 6 7 8 9 10 11 12 13 14 15 16 17 18 19 20 21 22 23 24 25 26 27 28 29 30 31 32 33 34 35 36 37 38 39 40 41 42 43 44 45 46 47 48 49 50
000
ASUS41 KGYX 010710
RWRGYX
WEATHER ROUNDUP FOR MAINE AND NEW HAMPSHIRE
NATIONAL WEATHER SERVICE GRAY ME
300 AM EDT FRI AUG 01 2014

MEZ002-005-006-010-012-015-018-020-021-024-026-027-029-010800-
MAINE

CITY           SKY/WX    TMP DP  RH WIND       PRES   REMARKS
PORTLAND       CLOUDY    65  61  87 SW3       30.15S
SANFORD        CLEAR     61  55  82 CALM      30.16S
BAR HARBOR     PTCLDY    61  61 100 MISG        N/A
WISCASSET      PTCLDY    61  59  93 CALM      30.16S
ROCKLAND       CLOUDY    63  61  94 CALM      30.13F
FRYEBURG       CLEAR     56  54  93 CALM      30.17S
LEWISTONAUBURN MOCLDY    55  54  94 CALM      30.15S
AUGUSTA        CLEAR     61  59  93 CALM      30.16S
WATERVILLE     MOCLDY    57  55  94 CALM      30.11F VSB 1/2
BANGOR         CLOUDY    63  61  93 S5        30.16S
GREENVILLE       N/A     58  58 100 CALM      30.14F
MILLINOCKET    PTCLDY    58  56  93 CALM      30.16S
HOULTON        PTCLDY    58  56  93 S5        30.14S
PRESQUE ISLE   CLEAR     54  50  87 CALM      30.14F
FRENCHVILLE    FOG       56  55  97 SW6       30.13R VSB 1/4
CARIBOU        FOG       55  54  96 S3        30.14R VSB 3/4
$$

NHZ002-005-008-009-011-012-014-010800-
NEW HAMPSHIRE

CITY           SKY/WX    TMP DP  RH WIND       PRES   REMARKS
PORTSMOUTH     CLEAR     61  59  95 SW3       30.16R
ROCHESTER      PTCLDY    62  60  93 CALM      30.16S FOG
NASHUA         CLEAR     62  62 100 CALM      30.17S
MANCHESTER     FOG       62  61  96 CALM      30.15S VSB 1/2
CONCORD        FOG       60  59  96 CALM      30.16S VSB 3/4
LACONIA          N/A     63  57  82 CALM      30.15S
PLYMOUTH       FOG       56  55  97 CALM      30.17S VSB 1/4
BERLIN         FOG       54  54 100 CALM      30.17S VSB 1/4
WHITEFIELD     NOT AVBL
JAFFREY        MOCLDY    57  55  93 CALM      30.19S FOG
LEBANON        CLEAR     56  54  93 CALM      30.16R FOG
MT WASHINGTON  PTCLDY    44  43  97 W32         N/A
$$

VTZ005-007-008-010800-
VERMONT

CITY           SKY/WX    TMP DP  RH WIND       PRES   REMARKS
ST JOHNSBURY     N/A     55  54  96 MISG      30.14S
MONTPELIER     CLEAR     53  52  96 CALM      30.19S FOG
BURLINGTON     CLEAR     60  57  89 SE3       30.11S
$$

MAZ007-012-024-CTZ003-RIZ002-NYZ038-NYZ072-010800-
SOUTHERN NEW ENGLAND AND NY

CITY           SKY/WX    TMP DP  RH WIND       PRES   REMARKS
BOSTON         PTCLDY    68  61  78 SW8       30.17R
WORCESTER      CLOUDY    64  62  93 SW8       30.20S
NANTUCKET      MOCLDY    63  62  97 S6        30.19S
PROVIDENCE     PTCLDY    65  62  90 S6        30.19R
HARTFORD       CLOUDY    65  61  87 CALM      30.16S
ALBANY         PTCLDY    62  60  93 CALM      30.14S
NEW YORK CITY  MOCLDY    73  65  75 S8        30.15S
$$

ANZ081-ANZ082-ANZ150-NHZ014-MEZ023>029-010800-
COASTAL MARINE OBSERVATIONS

STATION/POSITION TIME  TEMP    WIND        PRES    WAVE
                       AIR SEA DIR/SP/G            HT/PER
                 (UTC) (F)     (DEG/KT/KT) (MB)    (FT/S)
MOUNT DESERT ROC 0700   61                 1021.2F
MATINICUS ROCK   0700          240/ 15/ 15 1020.6R
PORTLAND WX BUOY 0700   63 63  220/  8/  8 1020.6F   3/ 7
WELLS            0700   61 58  170/  3/  4 1020.3R
ISLE OF SHOALS   0700   67     200/ 12/ 12 1020.9R
JEFFREYS LEDGE   0700      64                N/A     3/ 8
CASHES LEDGE BUO 0700   69 67  230/ 16/ 17 1020.4R
$$

.............KEY..............
   WCI - WIND CHILL
   TC  - TEMPERATURE IN CELSIUS
   VSB - VISIBILITY IN MILES
   HX  - HEAT INDEX
   FAIR- INDICATES FEW OR NO CLOUDS BELOW 12,000 FT, WITH NO
         SIGNIFICANT WEATHER AND/OR OBSTRUCTIONS TO VISIBILITY.





USA.gov is the U.S. government's official web portal to all federal, state and local government web resources and services.